Weather in Snezhanka

Bulgaria     41°34′32″N   24°42′27″E
temp.,
°C
wind,
m/s
gust,
m/s
humid.,
%
clouds,
%
prec.,
mm/h
press.,
hPa
HPBL,
m
19 april, mon
mon1900:00+7e119681 0.1 101592
03:00+5ene229798 0.1 1015175
06:00+5ene1298100 0.3 1014210
09:00+5ene1197100 1.4 1013175
12:00+9sse238161 0.8 1011760
15:00+10s347314 3.3 1008993
18:00+8sse238395 3.3 1007548
21:00+5w2299100 9.4 1008367
20 april, tue
tue2000:00+4n0196100 3.9 1009385
03:00+3ese1297100 4.4 1008335
06:00+2n2399100 2.7 1010284
09:00+3nnw128798 4.7 1012423
12:00+6w1277100 0.3 1012933
15:00+5ne0189100 2.3 1014729
18:00+4ssw119599 3.9 1015354
21:00+3w119447 4.3 101741
21 april, wed
wed2100:00+1w2294100 0.0 101831
03:00+2w2294100 0.1 101845
06:00+1wnw229412 0.1 101823
09:00+6wsw12823 0.4 1018314
12:00+9sw336116 1.0 10171413
15:00+9wsw346470 3.0 10171355
18:00+9wsw246646 1.7 10171072
21:00+3wnw21904 2.6 102114
22 april, thu
thu2200:00+2nw22870 0.0 102216
03:00+2nw22860 0.0 102213
06:00+2nw22853 0.0 102213
09:00+8sw116956 0.0 1021329
12:00+12ssw24466 0.0 10201864
15:00+13sw554629 0.1 10192112
18:00+11sw445825 0.1 10191272
21:00+5wsw2293100 0.1 102134
23 april, fri
fri2300:00+4wnw2295100 0.0 102121
03:00+5wnw2291100 0.0 102021
06:00+5wnw1185100 0.0 101815
09:00+9sw2369100 0.0 1017403
12:00+11sw3362100 0.1 10171296
15:00+12sw346195 0.4 10161441
18:00+11wsw3364100 0.2 10161040
21:00+8n1184100 0.3 101827